Year,Month,Day,Hour,Minute,Value (Times are PST for temperature in C)
2008,04,03,00,00,3.40
2008,04,03,00,01,3.40
2008,04,03,00,02,3.40
2008,04,03,00,03,3.30
2008,04,03,00,04,3.30
2008,04,03,00,05,3.30
2008,04,03,00,06,3.30
2008,04,03,00,07,3.30
2008,04,03,00,08,3.30
2008,04,03,00,09,3.30
2008,04,03,00,10,3.20
2008,04,03,00,11,3.20
2008,04,03,00,12,3.20
2008,04,03,00,13,3.20
2008,04,03,00,14,3.20
2008,04,03,00,15,3.20
2008,04,03,00,16,3.20
2008,04,03,00,17,3.10
2008,04,03,00,18,3.10
2008,04,03,00,19,3.10
2008,04,03,00,20,3.10
2008,04,03,00,21,3.10
2008,04,03,00,22,3.00
2008,04,03,00,23,2.90
2008,04,03,00,24,2.90
2008,04,03,00,25,2.90
2008,04,03,00,26,2.90
2008,04,03,00,27,2.90
2008,04,03,00,28,2.80
2008,04,03,00,29,2.80
2008,04,03,00,30,2.80
2008,04,03,00,31,2.70
2008,04,03,00,32,2.70
2008,04,03,00,33,2.70
2008,04,03,00,34,2.70
2008,04,03,00,35,2.70
2008,04,03,00,36,2.70
2008,04,03,00,37,2.70
2008,04,03,00,38,2.70
2008,04,03,00,39,2.70
2008,04,03,00,40,2.70
2008,04,03,00,41,2.70
2008,04,03,00,42,2.70
2008,04,03,00,43,2.70
2008,04,03,00,44,2.70
2008,04,03,00,45,2.70
2008,04,03,00,46,2.70
2008,04,03,00,47,2.70
2008,04,03,00,48,2.70
2008,04,03,00,49,2.70
2008,04,03,00,50,2.70
2008,04,03,00,51,2.70
2008,04,03,00,52,2.70
2008,04,03,00,53,2.70
2008,04,03,00,54,2.70
2008,04,03,00,55,2.70
2008,04,03,00,56,2.70
2008,04,03,00,57,2.70
2008,04,03,00,58,2.70
2008,04,03,00,59,2.70
2008,04,03,01,00,2.70
2008,04,03,01,01,2.70
2008,04,03,01,02,2.70
2008,04,03,01,03,2.70
2008,04,03,01,04,2.70
2008,04,03,01,05,2.70
2008,04,03,01,06,2.70
2008,04,03,01,07,2.70
2008,04,03,01,08,2.70
2008,04,03,01,09,2.70
2008,04,03,01,10,2.70
2008,04,03,01,11,2.70
2008,04,03,01,12,2.70
2008,04,03,01,13,2.70
2008,04,03,01,14,2.70
2008,04,03,01,15,2.70
2008,04,03,01,16,2.70
2008,04,03,01,17,2.70
2008,04,03,01,18,2.70
2008,04,03,01,19,2.70
2008,04,03,01,20,2.70
2008,04,03,01,21,2.70
2008,04,03,01,22,2.70
2008,04,03,01,23,2.70
2008,04,03,01,24,2.70
2008,04,03,01,25,2.70
2008,04,03,01,26,2.70
2008,04,03,01,27,2.70
2008,04,03,01,28,2.70
2008,04,03,01,29,2.70
2008,04,03,01,30,2.70
2008,04,03,01,31,2.70
2008,04,03,01,32,2.70
2008,04,03,01,33,2.70
2008,04,03,01,34,2.70
2008,04,03,01,35,2.70
2008,04,03,01,36,2.70
2008,04,03,01,37,2.60
2008,04,03,01,38,2.60
2008,04,03,01,39,2.60
2008,04,03,01,40,2.60
2008,04,03,01,41,2.60
2008,04,03,01,42,2.60
2008,04,03,01,43,2.60
2008,04,03,01,44,2.60
2008,04,03,01,45,2.60
2008,04,03,01,46,2.60
2008,04,03,01,47,2.60
2008,04,03,01,48,2.60
2008,04,03,01,49,2.60
2008,04,03,01,50,2.60
2008,04,03,01,51,2.60
2008,04,03,01,52,2.60
2008,04,03,01,53,2.60
2008,04,03,01,54,2.50
2008,04,03,01,55,2.50
2008,04,03,01,56,2.50
2008,04,03,01,57,2.50
2008,04,03,01,58,2.50
2008,04,03,01,59,2.50
2008,04,03,02,00,2.50
2008,04,03,02,01,2.50
2008,04,03,02,02,2.40
2008,04,03,02,03,2.40
2008,04,03,02,04,2.40
2008,04,03,02,05,2.40
2008,04,03,02,06,2.40
2008,04,03,02,07,2.40
2008,04,03,02,08,2.30
2008,04,03,02,09,2.30
2008,04,03,02,10,2.30
2008,04,03,02,11,2.30
2008,04,03,02,12,2.30
2008,04,03,02,13,2.30
2008,04,03,02,14,2.30
2008,04,03,02,15,2.30
2008,04,03,02,16,2.30
2008,04,03,02,17,2.30
2008,04,03,02,18,2.30
2008,04,03,02,19,2.30
2008,04,03,02,20,2.30
2008,04,03,02,21,2.30
2008,04,03,02,22,2.30
2008,04,03,02,23,2.30
2008,04,03,02,24,2.30
2008,04,03,02,25,2.30
2008,04,03,02,26,2.30
2008,04,03,02,27,2.30
2008,04,03,02,28,2.30
2008,04,03,02,29,2.20
2008,04,03,02,30,2.20
2008,04,03,02,31,2.20
2008,04,03,02,32,2.20
2008,04,03,02,33,2.20
2008,04,03,02,34,2.20
2008,04,03,02,35,2.20
2008,04,03,02,36,2.20
2008,04,03,02,37,2.20
2008,04,03,02,38,2.20
2008,04,03,02,39,2.20
2008,04,03,02,40,2.20
2008,04,03,02,41,2.20
2008,04,03,02,42,2.20
2008,04,03,02,43,2.20
2008,04,03,02,44,2.20
2008,04,03,02,45,2.20
2008,04,03,02,46,2.20
2008,04,03,02,47,2.20
2008,04,03,02,48,2.20
2008,04,03,02,49,2.20
2008,04,03,02,50,2.20
2008,04,03,02,51,2.20
2008,04,03,02,52,2.20
2008,04,03,02,53,2.20
2008,04,03,02,54,2.20
2008,04,03,02,55,2.30
2008,04,03,02,56,2.30
2008,04,03,02,57,2.30
2008,04,03,02,58,2.30
2008,04,03,02,59,2.30
2008,04,03,03,00,2.20
2008,04,03,03,01,2.20
2008,04,03,03,02,2.20
2008,04,03,03,03,2.20
2008,04,03,03,04,2.20
2008,04,03,03,05,2.20
2008,04,03,03,06,2.20
2008,04,03,03,07,2.20
2008,04,03,03,08,2.20
2008,04,03,03,09,2.20
2008,04,03,03,10,2.20
2008,04,03,03,11,2.20
2008,04,03,03,12,2.20
2008,04,03,03,13,2.20
2008,04,03,03,14,2.20
2008,04,03,03,15,2.20
2008,04,03,03,16,2.20
2008,04,03,03,17,2.20
2008,04,03,03,18,2.20
2008,04,03,03,19,2.20
2008,04,03,03,20,2.20
2008,04,03,03,21,2.20
2008,04,03,03,22,2.20
2008,04,03,03,23,2.20
2008,04,03,03,24,2.20
2008,04,03,03,25,2.20
2008,04,03,03,26,2.10
2008,04,03,03,27,2.10
2008,04,03,03,28,2.10
2008,04,03,03,29,2.10
2008,04,03,03,30,2.10
2008,04,03,03,31,2.10
2008,04,03,03,32,2.10
2008,04,03,03,33,2.10
2008,04,03,03,34,2.10
2008,04,03,03,35,2.00
2008,04,03,03,36,2.00
2008,04,03,03,37,2.00
2008,04,03,03,38,2.00
2008,04,03,03,39,2.00
2008,04,03,03,40,2.00
2008,04,03,03,41,2.00
2008,04,03,03,42,2.00
2008,04,03,03,43,2.00
2008,04,03,03,44,2.00
2008,04,03,03,45,2.00
2008,04,03,03,46,2.00
2008,04,03,03,47,2.00
2008,04,03,03,48,2.00
2008,04,03,03,49,2.00
2008,04,03,03,50,2.00
2008,04,03,03,51,1.90
2008,04,03,03,52,1.90
2008,04,03,03,53,1.90
2008,04,03,03,54,1.90
2008,04,03,03,55,1.90
2008,04,03,03,56,1.90
2008,04,03,03,57,1.90
2008,04,03,03,58,1.90
2008,04,03,03,59,1.80
2008,04,03,04,00,1.80
2008,04,03,04,01,1.80
2008,04,03,04,02,1.80
2008,04,03,04,03,1.80
2008,04,03,04,04,1.80
2008,04,03,04,05,1.80
2008,04,03,04,06,1.80
2008,04,03,04,07,1.80
2008,04,03,04,08,1.80
2008,04,03,04,09,1.80
2008,04,03,04,10,1.80
2008,04,03,04,11,1.80
2008,04,03,04,12,1.80
2008,04,03,04,13,1.80
2008,04,03,04,14,1.80
2008,04,03,04,15,1.80
2008,04,03,04,16,1.80
2008,04,03,04,17,1.80
2008,04,03,04,18,1.80
2008,04,03,04,19,1.80
2008,04,03,04,20,1.80
2008,04,03,04,21,1.80
2008,04,03,04,22,1.80
2008,04,03,04,23,1.80
2008,04,03,04,24,1.80
2008,04,03,04,25,1.80
2008,04,03,04,26,1.80
2008,04,03,04,27,1.80
2008,04,03,04,28,1.80
2008,04,03,04,29,1.80
2008,04,03,04,30,1.80
2008,04,03,04,31,1.80
2008,04,03,04,32,1.80
2008,04,03,04,33,1.80
2008,04,03,04,34,1.70
2008,04,03,04,35,1.70
2008,04,03,04,36,1.70
2008,04,03,04,37,1.70
2008,04,03,04,38,1.70
2008,04,03,04,39,1.70
2008,04,03,04,40,1.70
2008,04,03,04,41,1.70
2008,04,03,04,42,1.70
2008,04,03,04,43,1.70
2008,04,03,04,44,1.60
2008,04,03,04,45,1.60
2008,04,03,04,46,1.60
2008,04,03,04,47,1.60
2008,04,03,04,48,1.60
2008,04,03,04,49,1.60
2008,04,03,04,50,1.60
2008,04,03,04,51,1.60
2008,04,03,04,52,1.60
2008,04,03,04,53,1.60
2008,04,03,04,54,1.60
2008,04,03,04,55,1.50
2008,04,03,04,56,1.50
2008,04,03,04,57,1.50
2008,04,03,04,58,1.50
2008,04,03,04,59,1.50
2008,04,03,05,00,1.50
2008,04,03,05,01,1.50
2008,04,03,05,02,1.50
2008,04,03,05,03,1.50
2008,04,03,05,04,1.40
2008,04,03,05,05,1.40
2008,04,03,05,06,1.40
2008,04,03,05,07,1.40
2008,04,03,05,08,1.40
2008,04,03,05,09,1.40
2008,04,03,05,10,1.40
2008,04,03,05,11,1.40
2008,04,03,05,12,1.40
2008,04,03,05,13,1.40
2008,04,03,05,14,1.40
2008,04,03,05,15,1.30
2008,04,03,05,16,1.30
2008,04,03,05,17,1.30
2008,04,03,05,18,1.30
2008,04,03,05,19,1.30
2008,04,03,05,20,1.30
2008,04,03,05,21,1.30
2008,04,03,05,22,1.30
2008,04,03,05,23,1.30
2008,04,03,05,24,1.30
2008,04,03,05,25,1.30
2008,04,03,05,26,1.30
2008,04,03,05,27,1.30
2008,04,03,05,28,1.30
2008,04,03,05,29,1.30
2008,04,03,05,30,1.30
2008,04,03,05,31,1.30
2008,04,03,05,32,1.30
2008,04,03,05,33,1.30
2008,04,03,05,34,1.30
2008,04,03,05,35,1.30
2008,04,03,05,36,1.30
2008,04,03,05,37,1.30
2008,04,03,05,38,1.30
2008,04,03,05,39,1.30
2008,04,03,05,40,1.30
2008,04,03,05,41,1.30
2008,04,03,05,42,1.30
2008,04,03,05,43,1.30
2008,04,03,05,44,1.20
2008,04,03,05,45,1.20
2008,04,03,05,46,1.20
2008,04,03,05,47,1.20
2008,04,03,05,48,1.20
2008,04,03,05,49,1.20
2008,04,03,05,50,1.20
2008,04,03,05,51,1.20
2008,04,03,05,52,1.20
2008,04,03,05,53,1.10
2008,04,03,05,54,1.10
2008,04,03,05,55,1.10
2008,04,03,05,56,1.10
2008,04,03,05,57,1.10
2008,04,03,05,58,1.10
2008,04,03,05,59,1.10
2008,04,03,06,00,1.10
2008,04,03,06,01,1.10
2008,04,03,06,02,1.10
2008,04,03,06,03,1.10
2008,04,03,06,04,1.10
2008,04,03,06,05,1.10
2008,04,03,06,06,1.10
2008,04,03,06,07,1.10
2008,04,03,06,08,1.10
2008,04,03,06,09,1.10
2008,04,03,06,10,1.10
2008,04,03,06,11,1.10
2008,04,03,06,12,1.10
2008,04,03,06,13,1.10
2008,04,03,06,14,1.10
2008,04,03,06,15,1.10
2008,04,03,06,16,1.10
2008,04,03,06,17,1.10
2008,04,03,06,18,1.10
2008,04,03,06,19,1.10
2008,04,03,06,20,1.10
2008,04,03,06,21,1.10
2008,04,03,06,22,1.10
2008,04,03,06,23,1.00
2008,04,03,06,24,1.00
2008,04,03,06,25,1.00
2008,04,03,06,26,1.00
2008,04,03,06,27,1.00
2008,04,03,06,28,0.90
2008,04,03,06,29,0.90
2008,04,03,06,30,0.90
2008,04,03,06,31,0.90
2008,04,03,06,32,0.90
2008,04,03,06,33,0.90
2008,04,03,06,34,0.90
2008,04,03,06,35,0.90
2008,04,03,06,36,0.90
2008,04,03,06,37,0.90
2008,04,03,06,38,0.90
2008,04,03,06,39,0.90
2008,04,03,06,40,0.80
2008,04,03,06,41,0.80
2008,04,03,06,42,0.80
2008,04,03,06,43,0.80
2008,04,03,06,44,0.80
2008,04,03,06,45,0.80
2008,04,03,06,46,0.80
2008,04,03,06,47,0.80
2008,04,03,06,48,0.80
2008,04,03,06,49,0.80
2008,04,03,06,50,0.80
2008,04,03,06,51,0.80
2008,04,03,06,52,0.80
2008,04,03,06,53,0.80
2008,04,03,06,54,0.80
2008,04,03,06,55,0.80
2008,04,03,06,56,0.80
2008,04,03,06,57,0.80
2008,04,03,06,58,0.80
2008,04,03,06,59,0.80
2008,04,03,07,00,0.80
2008,04,03,07,01,0.80
2008,04,03,07,02,0.80
2008,04,03,07,03,0.80
2008,04,03,07,04,0.80
2008,04,03,07,05,0.80
2008,04,03,07,06,0.90
2008,04,03,07,07,0.90
2008,04,03,07,08,0.90
2008,04,03,07,09,0.90
2008,04,03,07,10,0.90
2008,04,03,07,11,0.90
2008,04,03,07,12,0.90
2008,04,03,07,13,1.00
2008,04,03,07,14,1.00
2008,04,03,07,15,1.00
2008,04,03,07,16,1.00
2008,04,03,07,17,1.00
2008,04,03,07,18,1.00
2008,04,03,07,19,1.00
2008,04,03,07,20,1.00
2008,04,03,07,21,1.00
2008,04,03,07,22,1.10
2008,04,03,07,23,1.10
2008,04,03,07,24,1.10
2008,04,03,07,25,1.20
2008,04,03,07,26,1.20
2008,04,03,07,27,1.20
2008,04,03,07,28,1.20
2008,04,03,07,29,1.30
2008,04,03,07,30,1.30
2008,04,03,07,31,1.30
2008,04,03,07,32,1.30
2008,04,03,07,33,1.30
2008,04,03,07,34,1.40
2008,04,03,07,35,1.40
2008,04,03,07,36,1.40
2008,04,03,07,37,1.50
2008,04,03,07,38,1.50
2008,04,03,07,39,1.50
2008,04,03,07,40,1.60
2008,04,03,07,41,1.60
2008,04,03,07,42,1.60
2008,04,03,07,43,1.60
2008,04,03,07,44,1.70
2008,04,03,07,45,1.70
2008,04,03,07,46,1.70
2008,04,03,07,47,1.80
2008,04,03,07,48,1.80
2008,04,03,07,49,1.80
2008,04,03,07,50,1.80
2008,04,03,07,51,1.80
2008,04,03,07,52,1.80
2008,04,03,07,53,1.90
2008,04,03,07,54,1.90
2008,04,03,07,55,1.90
2008,04,03,07,56,2.00
2008,04,03,07,57,2.00
2008,04,03,07,58,2.00
2008,04,03,07,59,2.10
2008,04,03,08,00,2.10
2008,04,03,08,01,2.10
2008,04,03,08,02,2.20
2008,04,03,08,03,2.20
2008,04,03,08,04,2.20
2008,04,03,08,05,2.20
2008,04,03,08,06,2.20
2008,04,03,08,07,2.30
2008,04,03,08,08,2.30
2008,04,03,08,09,2.40
2008,04,03,08,10,2.50
2008,04,03,08,11,2.60
2008,04,03,08,12,2.70
2008,04,03,08,13,2.80
2008,04,03,08,14,2.90
2008,04,03,08,15,3.10
2008,04,03,08,16,3.20
2008,04,03,08,17,3.20
2008,04,03,08,18,3.30
2008,04,03,08,19,3.30
2008,04,03,08,20,3.40
2008,04,03,08,21,3.50
2008,04,03,08,22,3.50
2008,04,03,08,23,3.60
2008,04,03,08,24,3.60
2008,04,03,08,25,3.70
2008,04,03,08,26,3.70
2008,04,03,08,27,3.80
2008,04,03,08,28,3.90
2008,04,03,08,29,4.00
2008,04,03,08,30,4.00
2008,04,03,08,31,4.10
2008,04,03,08,32,4.20
2008,04,03,08,33,4.30
2008,04,03,08,34,4.40
2008,04,03,08,35,4.40
2008,04,03,08,36,4.50
2008,04,03,08,37,4.60
2008,04,03,08,38,4.60
2008,04,03,08,39,4.70
2008,04,03,08,40,4.80
2008,04,03,08,41,4.90
2008,04,03,08,42,5.00
2008,04,03,08,43,5.10
2008,04,03,08,44,5.20
2008,04,03,08,45,5.30
2008,04,03,08,46,5.50
2008,04,03,08,47,5.60
2008,04,03,08,48,5.70
2008,04,03,08,49,5.70
2008,04,03,08,50,5.70
2008,04,03,08,51,5.70
2008,04,03,08,52,5.70
2008,04,03,08,53,5.70
2008,04,03,08,54,5.70
2008,04,03,08,55,5.70
2008,04,03,08,56,5.80
2008,04,03,08,57,5.80
2008,04,03,08,58,5.90
2008,04,03,08,59,6.00
2008,04,03,09,00,6.00
2008,04,03,09,01,6.10
2008,04,03,09,02,6.20
2008,04,03,09,03,6.20
2008,04,03,09,04,6.40
2008,04,03,09,05,6.40
2008,04,03,09,06,6.50
2008,04,03,09,07,6.60
2008,04,03,09,08,6.60
2008,04,03,09,09,6.60
2008,04,03,09,10,6.60
2008,04,03,09,11,6.70
2008,04,03,09,12,6.70
2008,04,03,09,13,6.70
2008,04,03,09,14,6.70
2008,04,03,09,15,6.80
2008,04,03,09,16,6.80
2008,04,03,09,17,6.80
2008,04,03,09,18,6.80
2008,04,03,09,19,6.80
2008,04,03,09,20,6.80
2008,04,03,09,21,6.80
2008,04,03,09,22,6.80
2008,04,03,09,23,6.80
2008,04,03,09,24,6.80
2008,04,03,09,25,6.80
2008,04,03,09,26,6.80
2008,04,03,09,27,6.80
2008,04,03,09,28,6.80
2008,04,03,09,29,6.80
2008,04,03,09,30,6.80
2008,04,03,09,31,6.80
2008,04,03,09,32,6.10
2008,04,03,09,33,6.00
2008,04,03,09,34,6.00
2008,04,03,09,35,6.00
2008,04,03,09,36,6.10
2008,04,03,09,37,6.00
2008,04,03,09,38,6.00
2008,04,03,09,39,6.00
2008,04,03,09,40,6.10
2008,04,03,09,41,6.10
2008,04,03,09,42,6.10
2008,04,03,09,43,6.20
2008,04,03,09,44,6.20
2008,04,03,09,45,6.20
2008,04,03,09,46,6.20
2008,04,03,09,47,6.20
2008,04,03,09,48,6.20
2008,04,03,09,49,6.30
2008,04,03,09,50,6.40
2008,04,03,09,51,6.40
2008,04,03,09,52,6.50
2008,04,03,09,53,6.60
2008,04,03,09,54,6.50
2008,04,03,09,55,6.40
2008,04,03,09,56,6.40
2008,04,03,09,57,6.40
2008,04,03,09,58,6.40
2008,04,03,09,59,6.40
2008,04,03,10,00,6.40
2008,04,03,10,01,6.40
2008,04,03,10,02,6.40
2008,04,03,10,03,6.40
2008,04,03,10,04,6.40
2008,04,03,10,05,6.60
2008,04,03,10,06,6.60
2008,04,03,10,07,6.60
2008,04,03,10,08,6.60
2008,04,03,10,09,6.60
2008,04,03,10,10,6.50
2008,04,03,10,11,6.40
2008,04,03,10,12,6.30
2008,04,03,10,13,6.30
2008,04,03,10,14,6.20
2008,04,03,10,15,6.20
2008,04,03,10,16,6.10
2008,04,03,10,17,6.10
2008,04,03,10,18,6.10
2008,04,03,10,19,6.10
2008,04,03,10,20,6.10
2008,04,03,10,21,6.00
2008,04,03,10,22,6.00
2008,04,03,10,23,5.90
2008,04,03,10,24,5.80
2008,04,03,10,25,5.80
2008,04,03,10,26,5.80
2008,04,03,10,27,5.80
2008,04,03,10,28,5.80
2008,04,03,10,29,5.90
2008,04,03,10,30,5.90
2008,04,03,10,31,5.90
2008,04,03,10,32,5.90
2008,04,03,10,33,6.00
2008,04,03,10,34,6.00
2008,04,03,10,35,6.10
2008,04,03,10,36,6.10
2008,04,03,10,37,6.10
2008,04,03,10,38,6.10
2008,04,03,10,39,6.20
2008,04,03,10,40,6.20
2008,04,03,10,41,6.20
2008,04,03,10,42,6.20
2008,04,03,10,43,6.20
2008,04,03,10,44,6.20
2008,04,03,10,45,6.20
2008,04,03,10,46,6.20
2008,04,03,10,47,6.30
2008,04,03,10,48,6.40
2008,04,03,10,49,6.30
2008,04,03,10,50,6.30
2008,04,03,10,51,6.40
2008,04,03,10,52,6.40
2008,04,03,10,53,6.40
2008,04,03,10,54,6.40
2008,04,03,10,55,6.60
2008,04,03,10,56,6.50
2008,04,03,10,57,6.40
2008,04,03,10,58,6.40
2008,04,03,10,59,6.40
2008,04,03,11,00,6.40
2008,04,03,11,01,6.40
2008,04,03,11,02,6.40
2008,04,03,11,03,6.40
2008,04,03,11,04,6.40
2008,04,03,11,05,6.40
2008,04,03,11,06,6.50
2008,04,03,11,07,6.60
2008,04,03,11,08,6.60
2008,04,03,11,09,6.50
2008,04,03,11,10,6.40
2008,04,03,11,11,6.40
2008,04,03,11,12,6.40
2008,04,03,11,13,6.40
2008,04,03,11,14,6.40
2008,04,03,11,15,6.50
2008,04,03,11,16,6.60
2008,04,03,11,17,6.60
2008,04,03,11,18,6.60
2008,04,03,11,19,6.60
2008,04,03,11,20,6.60
2008,04,03,11,21,6.50
2008,04,03,11,22,6.50
2008,04,03,11,23,6.40
2008,04,03,11,24,6.40
2008,04,03,11,25,6.50
2008,04,03,11,26,6.60
2008,04,03,11,27,6.60
2008,04,03,11,28,6.50
2008,04,03,11,29,6.50
2008,04,03,11,30,6.60
2008,04,03,11,31,6.60
2008,04,03,11,32,6.70
2008,04,03,11,33,6.80
2008,04,03,11,34,6.90
2008,04,03,11,35,7.00
2008,04,03,11,36,7.10
2008,04,03,11,37,7.20
2008,04,03,11,38,7.10
2008,04,03,11,39,7.10
2008,04,03,11,40,7.10
2008,04,03,11,41,7.10
2008,04,03,11,42,7.00
2008,04,03,11,43,7.00
2008,04,03,11,44,7.00
2008,04,03,11,45,7.00
2008,04,03,11,46,7.00
2008,04,03,11,47,7.00
2008,04,03,11,48,7.10
2008,04,03,11,49,7.10
2008,04,03,11,50,7.20
2008,04,03,11,51,7.20
2008,04,03,11,52,7.10
2008,04,03,11,53,7.00
2008,04,03,11,54,6.90
2008,04,03,11,55,6.90
2008,04,03,11,56,6.90
2008,04,03,11,57,7.00
2008,04,03,11,58,7.10
2008,04,03,11,59,7.10
2008,04,03,12,00,7.20
2008,04,03,12,01,7.10
2008,04,03,12,02,7.10
2008,04,03,12,03,7.00
2008,04,03,12,04,6.90
2008,04,03,12,05,6.90
2008,04,03,12,06,6.80
2008,04,03,12,07,6.90
2008,04,03,12,08,6.90
2008,04,03,12,09,7.10
2008,04,03,12,10,7.10
2008,04,03,12,11,7.30
2008,04,03,12,12,7.40
2008,04,03,12,13,7.30
2008,04,03,12,14,7.20
2008,04,03,12,15,7.10
2008,04,03,12,16,7.10
2008,04,03,12,17,7.00
2008,04,03,12,18,7.00
2008,04,03,12,19,7.00
2008,04,03,12,20,7.00
2008,04,03,12,21,7.10
2008,04,03,12,22,7.10
2008,04,03,12,23,7.10
2008,04,03,12,24,7.10
2008,04,03,12,25,7.00
2008,04,03,12,26,7.10
2008,04,03,12,27,7.20
2008,04,03,12,28,7.30
2008,04,03,12,29,7.30
2008,04,03,12,30,7.20
2008,04,03,12,31,7.20
2008,04,03,12,32,7.10
2008,04,03,12,33,7.00
2008,04,03,12,34,7.00
2008,04,03,12,35,7.00
2008,04,03,12,36,7.00
2008,04,03,12,37,7.00
2008,04,03,12,38,7.10
2008,04,03,12,39,7.20
2008,04,03,12,40,7.30
2008,04,03,12,41,7.30
2008,04,03,12,42,7.40
2008,04,03,12,43,7.50
2008,04,03,12,44,7.60
2008,04,03,12,45,7.60
2008,04,03,12,46,7.80
2008,04,03,12,47,7.90
2008,04,03,12,48,7.90
2008,04,03,12,49,7.90
2008,04,03,12,50,7.80
2008,04,03,12,51,7.90
2008,04,03,12,52,7.90
2008,04,03,12,53,7.80
2008,04,03,12,54,7.70
2008,04,03,12,55,7.60
2008,04,03,12,56,7.50
2008,04,03,12,57,7.40
2008,04,03,12,58,7.40
2008,04,03,12,59,7.30
2008,04,03,13,00,7.30
2008,04,03,13,01,7.30
2008,04,03,13,02,7.30
2008,04,03,13,03,7.30
2008,04,03,13,04,7.30
2008,04,03,13,05,7.30
2008,04,03,13,06,7.40
2008,04,03,13,07,7.40
2008,04,03,13,08,7.50
2008,04,03,13,09,7.60
2008,04,03,13,10,7.60
2008,04,03,13,11,7.60
2008,04,03,13,12,7.50
2008,04,03,13,13,7.40
2008,04,03,13,14,7.50
2008,04,03,13,15,7.60
2008,04,03,13,16,7.80
2008,04,03,13,17,7.90
2008,04,03,13,18,8.00
2008,04,03,13,19,8.10
2008,04,03,13,20,8.20
2008,04,03,13,21,8.20
2008,04,03,13,22,8.20
2008,04,03,13,23,8.30
2008,04,03,13,24,8.40
2008,04,03,13,25,8.40
2008,04,03,13,26,8.40
2008,04,03,13,27,8.40
2008,04,03,13,28,8.40
2008,04,03,13,29,8.40
2008,04,03,13,30,8.40
2008,04,03,13,31,8.40
2008,04,03,13,32,8.40
2008,04,03,13,33,8.30
2008,04,03,13,34,8.40
2008,04,03,13,35,8.30
2008,04,03,13,36,8.40
2008,04,03,13,37,8.40
2008,04,03,13,38,8.50
2008,04,03,13,39,8.40
2008,04,03,13,40,8.40
2008,04,03,13,41,8.50
2008,04,03,13,42,8.60
2008,04,03,13,43,8.50
2008,04,03,13,44,8.50
2008,04,03,13,45,8.50
2008,04,03,13,46,8.50
2008,04,03,13,47,8.50
2008,04,03,13,48,8.40
2008,04,03,13,49,8.40
2008,04,03,13,50,8.50
2008,04,03,13,51,8.60
2008,04,03,13,52,8.60
2008,04,03,13,53,8.70
2008,04,03,13,54,8.70
2008,04,03,13,55,8.70
2008,04,03,13,56,8.70
2008,04,03,13,57,8.70
2008,04,03,13,58,8.80
2008,04,03,13,59,8.90
2008,04,03,14,00,8.90
2008,04,03,14,01,8.80
2008,04,03,14,02,8.80
2008,04,03,14,03,8.70
2008,04,03,14,04,8.70
2008,04,03,14,05,8.70
2008,04,03,14,06,8.80
2008,04,03,14,07,8.90
2008,04,03,14,08,8.80
2008,04,03,14,09,8.80
2008,04,03,14,10,8.70
2008,04,03,14,11,8.80
2008,04,03,14,12,8.90
2008,04,03,14,13,8.90
2008,04,03,14,14,8.80
2008,04,03,14,15,8.70
2008,04,03,14,16,8.80
2008,04,03,14,17,8.80
2008,04,03,14,18,9.00
2008,04,03,14,19,9.10
2008,04,03,14,20,9.10
2008,04,03,14,21,9.10
2008,04,03,14,22,9.10
2008,04,03,14,23,9.10
2008,04,03,14,24,9.00
2008,04,03,14,25,9.00
2008,04,03,14,26,9.00
2008,04,03,14,27,8.90
2008,04,03,14,28,9.00
2008,04,03,14,29,9.00
2008,04,03,14,30,9.10
2008,04,03,14,31,9.10
2008,04,03,14,32,9.10
2008,04,03,14,33,9.10
2008,04,03,14,34,9.20
2008,04,03,14,35,9.20
2008,04,03,14,36,9.30
2008,04,03,14,37,9.40
2008,04,03,14,38,9.40
2008,04,03,14,39,9.40
2008,04,03,14,40,9.50
2008,04,03,14,41,9.40
2008,04,03,14,42,9.30
2008,04,03,14,43,9.20
2008,04,03,14,44,9.30
2008,04,03,14,45,9.30
2008,04,03,14,46,9.30
2008,04,03,14,47,9.30
2008,04,03,14,48,9.30
2008,04,03,14,49,9.30
2008,04,03,14,50,9.30
2008,04,03,14,51,9.20
2008,04,03,14,52,9.30
2008,04,03,14,53,9.30
2008,04,03,14,54,9.30
2008,04,03,14,55,9.30
2008,04,03,14,56,9.30
2008,04,03,14,57,9.20
2008,04,03,14,58,9.20
2008,04,03,14,59,9.20
2008,04,03,15,00,9.20
2008,04,03,15,01,9.20
2008,04,03,15,02,9.20
2008,04,03,15,03,9.20
2008,04,03,15,04,9.20
2008,04,03,15,05,9.20
2008,04,03,15,06,9.30
2008,04,03,15,07,9.30
2008,04,03,15,08,9.30
2008,04,03,15,09,9.30
2008,04,03,15,10,9.30
2008,04,03,15,11,9.40
2008,04,03,15,12,9.40
2008,04,03,15,13,9.40
2008,04,03,15,14,9.40
2008,04,03,15,15,9.40
2008,04,03,15,16,9.40
2008,04,03,15,17,9.40
2008,04,03,15,18,9.40
2008,04,03,15,19,9.50
2008,04,03,15,20,9.40
2008,04,03,15,21,9.40
2008,04,03,15,22,9.40
2008,04,03,15,23,9.50
2008,04,03,15,24,9.50
2008,04,03,15,25,9.50
2008,04,03,15,26,9.50
2008,04,03,15,27,9.50
2008,04,03,15,28,9.60
2008,04,03,15,29,9.60
2008,04,03,15,30,9.50
2008,04,03,15,31,9.50
2008,04,03,15,32,9.50
2008,04,03,15,33,9.50
2008,04,03,15,34,9.50
2008,04,03,15,35,9.50
2008,04,03,15,36,9.60
2008,04,03,15,37,9.60
2008,04,03,15,38,9.60
2008,04,03,15,39,9.60
2008,04,03,15,40,9.60
2008,04,03,15,41,9.60
2008,04,03,15,42,9.60
2008,04,03,15,43,9.60
2008,04,03,15,44,9.60
2008,04,03,15,45,9.70
2008,04,03,15,46,9.60
2008,04,03,15,47,9.70
2008,04,03,15,48,9.70
2008,04,03,15,49,9.70
2008,04,03,15,50,9.70
2008,04,03,15,51,9.70
2008,04,03,15,52,9.70
2008,04,03,15,53,9.70
2008,04,03,15,54,9.60
2008,04,03,15,55,9.60
2008,04,03,15,56,9.60
2008,04,03,15,57,9.60
2008,04,03,15,58,9.60
2008,04,03,15,59,9.60
2008,04,03,16,00,9.60
2008,04,03,16,01,9.60
2008,04,03,16,02,9.60
2008,04,03,16,03,9.50
2008,04,03,16,04,9.50
2008,04,03,16,05,9.50
2008,04,03,16,06,9.50
2008,04,03,16,07,9.60
2008,04,03,16,08,9.50
2008,04,03,16,09,9.50
2008,04,03,16,10,9.60
2008,04,03,16,11,9.60
2008,04,03,16,12,9.60
2008,04,03,16,13,9.70
2008,04,03,16,14,9.70
2008,04,03,16,15,9.70
2008,04,03,16,16,9.70
2008,04,03,16,17,9.70
2008,04,03,16,18,9.70
2008,04,03,16,19,9.70
2008,04,03,16,20,9.70
2008,04,03,16,21,9.70
2008,04,03,16,22,9.70
2008,04,03,16,23,9.70
2008,04,03,16,24,9.70
2008,04,03,16,25,9.70
2008,04,03,16,26,9.60
2008,04,03,16,27,9.60
2008,04,03,16,28,9.60
2008,04,03,16,29,9.60
2008,04,03,16,30,9.60
2008,04,03,16,31,9.60
2008,04,03,16,32,9.70
2008,04,03,16,33,9.60
2008,04,03,16,34,9.50
2008,04,03,16,35,9.50
2008,04,03,16,36,9.50
2008,04,03,16,37,9.50
2008,04,03,16,38,9.50
2008,04,03,16,39,9.50
2008,04,03,16,40,9.60
2008,04,03,16,41,9.60
2008,04,03,16,42,9.70
2008,04,03,16,43,9.70
2008,04,03,16,44,9.70
2008,04,03,16,45,9.70
2008,04,03,16,46,9.70
2008,04,03,16,47,9.70
2008,04,03,16,48,9.80
2008,04,03,16,49,9.80
2008,04,03,16,50,9.80
2008,04,03,16,51,9.90
2008,04,03,16,52,9.90
2008,04,03,16,53,9.90
2008,04,03,16,54,9.90
2008,04,03,16,55,9.90
2008,04,03,16,56,10.00
2008,04,03,16,57,10.10
2008,04,03,16,58,10.10
2008,04,03,16,59,10.10
2008,04,03,17,00,10.20
2008,04,03,17,01,10.30
2008,04,03,17,02,10.40
2008,04,03,17,03,10.40
2008,04,03,17,04,10.50
2008,04,03,17,05,10.60
2008,04,03,17,06,10.60
2008,04,03,17,07,10.60
2008,04,03,17,08,10.60
2008,04,03,17,09,10.60
2008,04,03,17,10,10.50
2008,04,03,17,11,10.40
2008,04,03,17,12,10.40
2008,04,03,17,13,10.40
2008,04,03,17,14,10.40
2008,04,03,17,15,10.50
2008,04,03,17,16,10.60
2008,04,03,17,17,10.60
2008,04,03,17,18,10.60
2008,04,03,17,19,10.60
2008,04,03,17,20,10.60
2008,04,03,17,21,10.60
2008,04,03,17,22,10.60
2008,04,03,17,23,10.60
2008,04,03,17,24,10.40
2008,04,03,17,25,10.40
2008,04,03,17,26,10.40
2008,04,03,17,27,10.40
2008,04,03,17,28,10.40
2008,04,03,17,29,10.40
2008,04,03,17,30,10.40
2008,04,03,17,31,10.30
2008,04,03,17,32,10.30
2008,04,03,17,33,10.30
2008,04,03,17,34,10.40
2008,04,03,17,35,10.40
2008,04,03,17,36,10.40
2008,04,03,17,37,10.40
2008,04,03,17,38,10.50
2008,04,03,17,39,10.50
2008,04,03,17,40,10.40
2008,04,03,17,41,10.40
2008,04,03,17,42,10.40
2008,04,03,17,43,10.30
2008,04,03,17,44,10.30
2008,04,03,17,45,10.30
2008,04,03,17,46,10.30
2008,04,03,17,47,10.30
2008,04,03,17,48,10.30
2008,04,03,17,49,10.20
2008,04,03,17,50,10.20
2008,04,03,17,51,10.20
2008,04,03,17,52,10.10
2008,04,03,17,53,10.10
2008,04,03,17,54,10.10
2008,04,03,17,55,10.10
2008,04,03,17,56,10.00
2008,04,03,17,57,9.90
2008,04,03,17,58,9.90
2008,04,03,17,59,9.90
2008,04,03,18,00,9.90
2008,04,03,18,01,9.90
2008,04,03,18,02,9.90
2008,04,03,18,03,9.90